Time,TemperatureF,DewpointF,PressureIn,WindDirection,WindDirectionDegrees,WindSpeedMPH,WindSpeedGustMPH,Humidity,HourlyPrecipIn,Conditions,Clouds,dailyrainin,SolarRadiationWatts/m^2,SoftwareType,DateUTC
2013-03-02 00:21:00,52.0,41.0,-100.00,SSE,147,9.0,19.0,67,0.00,,,0.00,0.000000,,2013-03-02 10:21:00,
2013-03-02 00:31:00,52.0,41.0,-100.00,SSE,147,9.0,19.0,67,0.00,,,0.00,0.000000,,2013-03-02 10:31:00,
2013-03-02 00:42:00,52.0,41.0,-100.00,SSE,147,9.0,19.0,67,0.00,,,0.00,0.000000,,2013-03-02 10:42:00,
2013-03-02 00:51:00,52.0,41.0,-100.00,SSE,147,9.0,19.0,67,0.00,,,0.00,0.000000,,2013-03-02 10:51:00,
2013-03-02 01:21:00,53.0,33.0,-100.00,SE,124,15.0,27.0,47,0.00,,,0.00,0.000000,,2013-03-02 11:21:00,
2013-03-02 01:31:00,53.0,33.0,-100.00,SE,124,15.0,27.0,47,0.00,,,0.00,0.000000,,2013-03-02 11:31:00,
2013-03-02 01:41:00,53.0,33.0,-100.00,SE,124,15.0,27.0,47,0.00,,,0.00,0.000000,,2013-03-02 11:41:00,
2013-03-02 01:52:00,53.0,33.0,-100.00,SE,124,15.0,27.0,47,0.00,,,0.00,0.000000,,2013-03-02 11:52:00,
2013-03-02 02:21:00,54.0,37.0,-100.00,SSE,166,7.0,25.0,53,0.00,,,0.00,0.000000,,2013-03-02 12:21:00,
2013-03-02 02:32:00,54.0,37.0,-100.00,SSE,166,7.0,25.0,53,0.00,,,0.00,0.000000,,2013-03-02 12:32:00,
2013-03-02 02:43:00,54.0,37.0,-100.00,SSE,166,7.0,25.0,53,0.00,,,0.00,0.000000,,2013-03-02 12:43:00,
2013-03-02 02:53:00,54.0,37.0,-100.00,SSE,166,7.0,25.0,53,0.00,,,0.00,0.000000,,2013-03-02 12:53:00,
2013-03-02 03:21:00,50.0,44.0,-100.00,SSW,192,7.0,14.0,79,0.00,,,0.00,0.000000,,2013-03-02 13:21:00,
2013-03-02 03:31:00,50.0,44.0,-100.00,SSW,192,7.0,14.0,79,0.00,,,0.00,0.000000,,2013-03-02 13:31:00,
2013-03-02 03:41:00,50.0,44.0,-100.00,SSW,192,7.0,14.0,79,0.00,,,0.00,0.000000,,2013-03-02 13:41:00,
2013-03-02 03:52:00,50.0,44.0,-100.00,SSW,192,7.0,14.0,79,0.00,,,0.00,0.000000,,2013-03-02 13:52:00,
2013-03-02 04:21:00,48.0,41.0,-100.00,SE,138,4.0,9.0,77,0.00,,,-99.99,0.000000,,2013-03-02 14:21:00,
2013-03-02 04:32:00,48.0,41.0,-100.00,SE,138,4.0,9.0,77,0.00,,,-99.99,0.000000,,2013-03-02 14:32:00,
2013-03-02 04:42:00,48.0,41.0,-100.00,SE,138,4.0,9.0,77,0.00,,,-99.99,0.000000,,2013-03-02 14:42:00,
2013-03-02 04:52:00,48.0,41.0,-100.00,SE,138,4.0,9.0,77,0.00,,,-99.99,0.000000,,2013-03-02 14:52:00,
2013-03-02 05:21:00,47.0,36.0,-100.00,SE,136,9.0,16.0,65,0.00,,,0.00,0.000000,,2013-03-02 15:21:00,
2013-03-02 05:31:00,47.0,36.0,-100.00,SE,136,9.0,16.0,65,0.00,,,0.00,0.000000,,2013-03-02 15:31:00,
2013-03-02 05:41:00,47.0,36.0,-100.00,SE,136,9.0,16.0,65,0.00,,,0.00,0.000000,,2013-03-02 15:41:00,
2013-03-02 05:51:00,47.0,36.0,-100.00,SE,136,9.0,16.0,65,0.00,,,0.00,0.000000,,2013-03-02 15:51:00,
2013-03-02 06:21:00,48.0,44.0,-100.00,South,178,9.0,16.0,85,0.00,,,0.00,0.000000,,2013-03-02 16:21:00,
2013-03-02 06:31:00,48.0,44.0,-100.00,South,178,9.0,16.0,85,0.00,,,0.00,0.000000,,2013-03-02 16:31:00,
2013-03-02 06:41:00,48.0,44.0,-100.00,South,178,9.0,16.0,85,0.00,,,0.00,0.000000,,2013-03-02 16:41:00,
2013-03-02 06:51:00,48.0,44.0,-100.00,South,178,9.0,16.0,85,0.00,,,0.00,0.000000,,2013-03-02 16:51:00,
2013-03-02 07:11:00,48.0,44.0,-100.00,SSW,192,7.0,12.0,87,0.00,,,0.00,1.000000,,2013-03-02 17:11:00,
2013-03-02 07:21:00,48.0,44.0,-100.00,SSW,192,7.0,12.0,87,0.00,,,0.00,1.000000,,2013-03-02 17:21:00,
2013-03-02 07:32:00,48.0,44.0,-100.00,SSW,192,7.0,12.0,87,0.00,,,0.00,1.000000,,2013-03-02 17:32:00,
2013-03-02 07:41:00,48.0,44.0,-100.00,SSW,192,7.0,12.0,87,0.00,,,0.00,1.000000,,2013-03-02 17:41:00,
2013-03-02 07:52:00,48.0,44.0,-100.00,SSW,192,7.0,12.0,87,0.00,,,0.00,1.000000,,2013-03-02 17:52:00,
2013-03-02 08:22:00,55.0,48.0,-100.00,NE,50,2.0,9.0,77,0.00,,,0.00,131.000000,,2013-03-02 18:22:00,
2013-03-02 08:31:00,55.0,48.0,-100.00,NE,50,2.0,9.0,77,0.00,,,0.00,131.000000,,2013-03-02 18:31:00,
2013-03-02 08:41:00,55.0,48.0,-100.00,NE,50,2.0,9.0,77,0.00,,,0.00,131.000000,,2013-03-02 18:41:00,
2013-03-02 08:51:00,55.0,48.0,-100.00,NE,50,2.0,9.0,77,0.00,,,0.00,131.000000,,2013-03-02 18:51:00,
2013-03-02 09:21:00,58.0,49.0,-100.00,NNE,30,3.0,10.0,72,0.00,,,0.00,321.000000,,2013-03-02 19:21:00,
2013-03-02 09:31:00,58.0,49.0,-100.00,NNE,30,3.0,10.0,72,0.00,,,0.00,321.000000,,2013-03-02 19:31:00,
2013-03-02 09:42:00,58.0,49.0,-100.00,NNE,30,3.0,10.0,72,0.00,,,0.00,321.000000,,2013-03-02 19:42:00,
2013-03-02 09:52:00,58.0,49.0,-100.00,NNE,30,3.0,10.0,72,0.00,,,0.00,321.000000,,2013-03-02 19:52:00,
2013-03-02 10:21:00,63.0,49.0,-100.00,WNW,284,7.0,14.0,61,0.00,,,0.00,672.000000,,2013-03-02 20:21:00,
2013-03-02 10:32:00,63.0,49.0,-100.00,WNW,284,7.0,14.0,61,0.00,,,0.00,672.000000,,2013-03-02 20:32:00,
2013-03-02 10:41:00,63.0,49.0,-100.00,WNW,284,7.0,14.0,61,0.00,,,0.00,672.000000,,2013-03-02 20:41:00,
2013-03-02 10:52:00,63.0,49.0,-100.00,WNW,284,7.0,14.0,61,0.00,,,0.00,672.000000,,2013-03-02 20:52:00,
2013-03-02 11:22:00,65.0,51.0,-100.00,WSW,258,6.0,16.0,61,0.00,,,0.00,893.000000,,2013-03-02 21:22:00,
2013-03-02 11:31:00,65.0,51.0,-100.00,WSW,258,6.0,16.0,61,0.00,,,0.00,893.000000,,2013-03-02 21:31:00,
2013-03-02 11:41:00,65.0,51.0,-100.00,WSW,258,6.0,16.0,61,0.00,,,0.00,893.000000,,2013-03-02 21:41:00,
2013-03-02 11:52:00,65.0,51.0,-100.00,WSW,258,6.0,16.0,61,0.00,,,0.00,893.000000,,2013-03-02 21:52:00,
2013-03-02 12:21:00,65.0,49.0,-100.00,West,280,13.0,22.0,56,0.00,,,0.00,1011.000000,,2013-03-02 22:21:00,
2013-03-02 12:32:00,65.0,49.0,-100.00,West,280,13.0,22.0,56,0.00,,,0.00,1011.000000,,2013-03-02 22:32:00,
2013-03-02 12:42:00,65.0,49.0,-100.00,West,280,13.0,22.0,56,0.00,,,0.00,1011.000000,,2013-03-02 22:42:00,
2013-03-02 12:51:00,65.0,49.0,-100.00,West,280,13.0,22.0,56,0.00,,,0.00,1011.000000,,2013-03-02 22:51:00,
2013-03-02 13:11:00,69.0,47.0,-100.00,WSW,242,13.0,23.0,46,0.00,,,0.00,1105.000000,,2013-03-02 23:11:00,
2013-03-02 13:21:00,69.0,47.0,-100.00,WSW,242,13.0,23.0,46,0.00,,,0.00,1105.000000,,2013-03-02 23:21:00,
2013-03-02 13:32:00,69.0,47.0,-100.00,WSW,242,13.0,23.0,46,0.00,,,0.00,1105.000000,,2013-03-02 23:32:00,
2013-03-02 13:42:00,69.0,47.0,-100.00,WSW,242,13.0,23.0,46,0.00,,,0.00,1105.000000,,2013-03-02 23:42:00,
2013-03-02 13:52:00,69.0,47.0,-100.00,WSW,242,13.0,23.0,46,0.00,,,0.00,1105.000000,,2013-03-02 23:52:00,
2013-03-02 14:22:00,72.0,52.0,-100.00,WNW,298,13.0,24.0,50,0.00,,,0.00,1080.000000,,2013-03-03 00:22:00,
2013-03-02 14:32:00,72.0,52.0,-100.00,WNW,298,13.0,24.0,50,0.00,,,0.00,1080.000000,,2013-03-03 00:32:00,
2013-03-02 14:42:00,72.0,52.0,-100.00,WNW,298,13.0,24.0,50,0.00,,,0.00,1080.000000,,2013-03-03 00:42:00,
2013-03-02 14:52:00,72.0,52.0,-100.00,WNW,298,13.0,24.0,50,0.00,,,0.00,1080.000000,,2013-03-03 00:52:00,
2013-03-02 15:21:00,71.0,52.0,-100.00,West,281,13.0,25.0,52,0.00,,,0.00,969.000000,,2013-03-03 01:21:00,
2013-03-02 15:31:00,71.0,52.0,-100.00,West,281,13.0,25.0,52,0.00,,,0.00,969.000000,,2013-03-03 01:31:00,
2013-03-02 15:41:00,71.0,52.0,-100.00,West,281,13.0,25.0,52,0.00,,,0.00,969.000000,,2013-03-03 01:41:00,
2013-03-02 15:51:00,71.0,52.0,-100.00,West,281,13.0,25.0,52,0.00,,,0.00,969.000000,,2013-03-03 01:51:00,
2013-03-02 16:21:00,69.0,53.0,-100.00,WNW,300,11.0,23.0,56,0.00,,,0.00,715.000000,,2013-03-03 02:21:00,
2013-03-02 16:31:00,69.0,53.0,-100.00,WNW,300,11.0,23.0,56,0.00,,,0.00,715.000000,,2013-03-03 02:31:00,
2013-03-02 16:41:00,69.0,53.0,-100.00,WNW,300,11.0,23.0,56,0.00,,,0.00,715.000000,,2013-03-03 02:41:00,
2013-03-02 16:52:00,69.0,53.0,-100.00,WNW,300,11.0,23.0,56,0.00,,,0.00,715.000000,,2013-03-03 02:52:00,
2013-03-02 17:21:00,63.0,52.0,-100.00,WNW,303,12.0,22.0,68,0.00,,,0.00,510.000000,,2013-03-03 03:21:00,
2013-03-02 17:31:00,63.0,52.0,-100.00,WNW,303,12.0,22.0,68,0.00,,,0.00,510.000000,,2013-03-03 03:31:00,
2013-03-02 17:41:00,63.0,52.0,-100.00,WNW,303,12.0,22.0,68,0.00,,,0.00,510.000000,,2013-03-03 03:41:00,
2013-03-02 17:51:00,63.0,52.0,-100.00,WNW,303,12.0,22.0,68,0.00,,,0.00,510.000000,,2013-03-03 03:51:00,
2013-03-02 18:21:00,58.0,52.0,-100.00,WNW,300,7.0,18.0,81,0.00,,,0.00,135.000000,,2013-03-03 04:21:00,
2013-03-02 18:31:00,58.0,52.0,-100.00,WNW,300,7.0,18.0,81,0.00,,,0.00,135.000000,,2013-03-03 04:31:00,
2013-03-02 18:41:00,58.0,52.0,-100.00,WNW,300,7.0,18.0,81,0.00,,,0.00,135.000000,,2013-03-03 04:41:00,
2013-03-02 18:51:00,58.0,52.0,-100.00,WNW,300,7.0,18.0,81,0.00,,,0.00,135.000000,,2013-03-03 04:51:00,
2013-03-02 19:22:00,57.0,53.0,-100.00,WSW,257,4.0,10.0,87,0.00,,,0.00,16.000000,,2013-03-03 05:22:00,
2013-03-02 19:32:00,57.0,53.0,-100.00,WSW,257,4.0,10.0,87,0.00,,,0.00,16.000000,,2013-03-03 05:32:00,
2013-03-02 19:42:00,57.0,53.0,-100.00,WSW,257,4.0,10.0,87,0.00,,,0.00,16.000000,,2013-03-03 05:42:00,
2013-03-02 19:52:00,57.0,53.0,-100.00,WSW,257,4.0,10.0,87,0.00,,,0.00,16.000000,,2013-03-03 05:52:00,
2013-03-02 20:21:00,55.0,52.0,-100.00,SSW,212,5.0,9.0,90,0.00,,,0.00,0.000000,,2013-03-03 06:21:00,
2013-03-02 20:31:00,55.0,52.0,-100.00,SSW,212,5.0,9.0,90,0.00,,,0.00,0.000000,,2013-03-03 06:31:00,
2013-03-02 20:42:00,55.0,52.0,-100.00,SSW,212,5.0,9.0,90,0.00,,,0.00,0.000000,,2013-03-03 06:42:00,
2013-03-02 20:52:00,55.0,52.0,-100.00,SSW,212,5.0,9.0,90,0.00,,,0.00,0.000000,,2013-03-03 06:52:00,
2013-03-02 21:21:00,48.0,46.0,-100.00,SE,130,4.0,8.0,93,0.00,,,0.00,0.000000,,2013-03-03 07:21:00,
2013-03-02 21:31:00,48.0,46.0,-100.00,SE,130,4.0,8.0,93,0.00,,,0.00,0.000000,,2013-03-03 07:31:00,
2013-03-02 21:42:00,48.0,46.0,-100.00,SE,130,4.0,8.0,93,0.00,,,0.00,0.000000,,2013-03-03 07:42:00,
2013-03-02 21:51:00,48.0,46.0,-100.00,SE,130,4.0,8.0,93,0.00,,,0.00,0.000000,,2013-03-03 07:51:00,
2013-03-02 22:21:00,46.0,44.0,-100.00,ESE,117,5.0,10.0,94,0.00,,,0.00,0.000000,,2013-03-03 08:21:00,
2013-03-02 22:31:00,46.0,44.0,-100.00,ESE,117,5.0,10.0,94,0.00,,,0.00,0.000000,,2013-03-03 08:31:00,
2013-03-02 22:41:00,46.0,44.0,-100.00,ESE,117,5.0,10.0,94,0.00,,,0.00,0.000000,,2013-03-03 08:41:00,
2013-03-02 22:53:00,46.0,44.0,-100.00,ESE,117,5.0,10.0,94,0.00,,,0.00,0.000000,,2013-03-03 08:53:00,
2013-03-02 23:21:00,50.0,48.0,-100.00,ESE,111,3.0,12.0,93,0.00,,,0.00,0.000000,,2013-03-03 09:21:00,
2013-03-02 23:32:00,50.0,48.0,-100.00,ESE,111,3.0,12.0,93,0.00,,,0.00,0.000000,,2013-03-03 09:32:00,
2013-03-02 23:41:00,50.0,48.0,-100.00,ESE,111,3.0,12.0,93,0.00,,,0.00,0.000000,,2013-03-03 09:41:00,
2013-03-02 23:51:00,50.0,48.0,-100.00,ESE,111,3.0,12.0,93,0.00,,,0.00,0.000000,,2013-03-03 09:51:00,